,,Stat6,,Stat2,,Stat8,,Stat9,,Stat10,,Wind1,,Wind1,
time,status,PA1M_AVG,status,PR1M_SUM,status,RH1M_AVG,status,SR1M_AVG,status,TA1M_AVG,status,W1dAve1m,status,W1sAve1m,
2005-02-04, 00:00:01,VALID,919.265,VALID,0,VALID,100,VALID,0.0169808,VALID,20.5431,VALID,127,VALID,0.171875,
2005-02-04, 00:01:01,VALID,919.246,VALID,0,VALID,100,VALID,0.0169808,VALID,20.5665,VALID,118,VALID,0.164931,
2005-02-04, 00:02:00,VALID,919.223,VALID,0.2,VALID,100,VALID,0.0339617,VALID,20.5826,VALID,112,VALID,0.271621,
2005-02-04, 00:03:00,VALID,919.202,VALID,0,VALID,100,VALID,0.0169808,VALID,20.6082,VALID,109,VALID,0.011814,
2005-02-04, 00:04:01,VALID,919.195,VALID,0,VALID,100,VALID,0,VALID,20.6049,VALID,109,VALID,0.180027,
2005-02-04, 00:05:01,VALID,919.183,VALID,0,VALID,100,VALID,0,VALID,20.6246,VALID,109,VALID,0.150484,
2005-02-04, 00:06:01,VALID,919.172,VALID,0,VALID,100,VALID,0,VALID,20.6733,VALID,92,VALID,0.405273,
2005-02-04, 00:07:01,VALID,919.155,VALID,0,VALID,100,VALID,0,VALID,20.6924,VALID,55,VALID,0.465216,
2005-02-04, 00:08:01,VALID,919.139,VALID,0,VALID,100,VALID,0.0169808,VALID,20.673,VALID,55,VALID,0.500953,
2005-02-04, 00:09:00,VALID,919.111,VALID,0,VALID,100,VALID,-0.0339617,VALID,20.6574,VALID,55,VALID,0.585379,
2005-02-04, 00:10:00,VALID,919.121,VALID,0,VALID,100,VALID,0,VALID,20.6345,VALID,55,VALID,0.573847,
2005-02-04, 00:11:00,VALID,919.111,VALID,0,VALID,100,VALID,-0.0339617,VALID,20.6248,VALID,55,VALID,0.582386,
2005-02-04, 00:12:01,VALID,919.103,VALID,0,VALID,100,VALID,0,VALID,20.592,VALID,55,VALID,0.582031,
2005-02-04, 00:13:01,VALID,919.098,VALID,0,VALID,100,VALID,0,VALID,20.5632,VALID,55,VALID,0.587209,
2005-02-04, 00:14:00,VALID,919.093,VALID,0,VALID,100,VALID,0.0339617,VALID,20.5404,VALID,55,VALID,0.548404,
2005-02-04, 00:15:01,VALID,919.088,VALID,0,VALID,100,VALID,0,VALID,20.5342,VALID,55,VALID,0.297215,
2005-02-04, 00:16:00,VALID,919.081,VALID,0,VALID,100,VALID,0,VALID,20.5207,VALID,55,VALID,0.185937,
2005-02-04, 00:17:00,VALID,919.058,VALID,0,VALID,100,VALID,0,VALID,20.5245,VALID,55,VALID,0.028054,
2005-02-04, 00:18:01,VALID,919.024,VALID,0,VALID,100,VALID,0,VALID,20.5183,VALID,55,VALID,0,
2005-02-04, 00:19:00,VALID,919.008,VALID,0,VALID,100,VALID,0,VALID,20.4889,VALID,55,VALID,0,
2005-02-04, 00:20:00,VALID,918.984,VALID,0,VALID,100,VALID,0,VALID,20.4502,VALID,55,VALID,0,
2005-02-04, 00:21:00,VALID,918.97,VALID,0,VALID,100,VALID,0.0169808,VALID,20.4276,VALID,68,VALID,0.475868,
2005-02-04, 00:22:00,VALID,918.948,VALID,0,VALID,100,VALID,0,VALID,20.4152,VALID,83,VALID,0.578658,
2005-02-04, 00:23:01,VALID,918.921,VALID,0,VALID,100,VALID,0,VALID,20.3988,VALID,83,VALID,0.526786,
2005-02-04, 00:24:00,VALID,918.89,VALID,0,VALID,100,VALID,0,VALID,20.3886,VALID,83,VALID,0.451079,
2005-02-04, 00:25:00,VALID,918.867,VALID,0,VALID,100,VALID,0,VALID,20.3853,VALID,84,VALID,0.396528,
2005-02-04, 00:26:00,VALID,918.837,VALID,0,VALID,100,VALID,0,VALID,20.3923,VALID,92,VALID,0.458789,
2005-02-04, 00:27:01,VALID,918.809,VALID,0,VALID,100,VALID,0,VALID,20.3891,VALID,114,VALID,0.69308,
2005-02-04, 00:28:00,VALID,918.782,VALID,0,VALID,100,VALID,0,VALID,20.3595,VALID,114,VALID,0.655134,
2005-02-04, 00:29:00,VALID,918.747,VALID,0,VALID,100,VALID,0,VALID,20.3565,VALID,105,VALID,0.571584,
2005-02-04, 00:30:01,VALID,918.718,VALID,0,VALID,100,VALID,0,VALID,20.3466,VALID,78,VALID,0.745808,
2005-02-04, 00:31:00,VALID,918.707,VALID,0,VALID,100,VALID,0.0169808,VALID,20.3568,VALID,78,VALID,0.644531,
2005-02-04, 00:32:00,VALID,918.7,VALID,0,VALID,100,VALID,0,VALID,20.3632,VALID,81,VALID,0.528993,
2005-02-04, 00:33:00,VALID,918.683,VALID,0,VALID,100,VALID,0.0169808,VALID,20.3406,VALID,92,VALID,0.695898,
2005-02-04, 00:34:00,VALID,918.677,VALID,0,VALID,100,VALID,0,VALID,20.3275,VALID,96,VALID,0.550114,
2005-02-04, 00:35:00,VALID,918.664,VALID,0,VALID,100,VALID,0,VALID,20.3148,VALID,117,VALID,0.885671,
2005-02-04, 00:36:00,VALID,918.66,VALID,0,VALID,100,VALID,0,VALID,20.3282,VALID,108,VALID,0.721236,
2005-02-04, 00:37:00,VALID,918.633,VALID,0,VALID,100,VALID,0,VALID,20.3178,VALID,113,VALID,0.793064,
2005-02-04, 00:38:01,VALID,918.615,VALID,0,VALID,100,VALID,0.0339617,VALID,20.3118,VALID,108,VALID,1.01853,
2005-02-04, 00:39:00,VALID,918.593,VALID,0,VALID,100,VALID,0.0169808,VALID,20.3016,VALID,108,VALID,0.966332,
2005-02-04, 00:40:00,VALID,918.57,VALID,0,VALID,100,VALID,0.0169808,VALID,20.3051,VALID,113,VALID,0.653525,
2005-02-04, 00:41:01,VALID,918.563,VALID,0,VALID,100,VALID,0,VALID,20.3247,VALID,126,VALID,0.746875,
2005-02-04, 00:42:01,VALID,918.547,VALID,0,VALID,100,VALID,0.0169808,VALID,20.3272,VALID,130,VALID,0.765434,
2005-02-04, 00:43:01,VALID,918.551,VALID,0,VALID,100,VALID,0.0169808,VALID,20.3406,VALID,127,VALID,0.598899,
2005-02-04, 00:44:00,VALID,918.538,VALID,0,VALID,100,VALID,0,VALID,20.3436,VALID,130,VALID,0.534884,
2005-02-04, 00:45:00,VALID,918.516,VALID,0,VALID,100,VALID,0.0169808,VALID,20.3473,VALID,108,VALID,0.978871,
2005-02-04, 00:46:00,VALID,918.496,VALID,0,VALID,100,VALID,0,VALID,20.3503,VALID,89,VALID,0.566406,
2005-02-04, 00:47:00,VALID,918.472,VALID,0,VALID,100,VALID,0.0169808,VALID,20.3568,VALID,92,VALID,0.759718,
2005-02-04, 00:48:00,VALID,918.464,VALID,0,VALID,100,VALID,0,VALID,20.3829,VALID,68,VALID,0.680078,
2005-02-04, 00:49:01,VALID,918.435,VALID,0,VALID,100,VALID,0.0169808,VALID,20.3891,VALID,70,VALID,0.540879,
2005-02-04, 00:50:00,VALID,918.427,VALID,0,VALID,100,VALID,0,VALID,20.3953,VALID,83,VALID,0.909856,
2005-02-04, 00:51:01,VALID,918.427,VALID,0,VALID,100,VALID,0,VALID,20.3985,VALID,104,VALID,0.816051,
2005-02-04, 00:52:01,VALID,918.424,VALID,0,VALID,100,VALID,0,VALID,20.399,VALID,100,VALID,0.638889,
2005-02-04, 00:53:00,VALID,918.415,VALID,0,VALID,100,VALID,-0.0169808,VALID,20.4092,VALID,103,VALID,0.633176,
2005-02-04, 00:54:00,VALID,918.419,VALID,0,VALID,100,VALID,0,VALID,20.4015,VALID,117,VALID,0.667111,
2005-02-04, 00:55:01,VALID,918.399,VALID,0,VALID,100,VALID,0.0339617,VALID,20.4179,VALID,113,VALID,0.963914,
2005-02-04, 00:56:01,VALID,918.394,VALID,0,VALID,100,VALID,0,VALID,20.4184,VALID,120,VALID,0.907315,
2005-02-04, 00:57:00,VALID,918.372,VALID,0,VALID,100,VALID,0,VALID,20.405,VALID,115,VALID,0.904762,
2005-02-04, 00:58:00,VALID,918.366,VALID,0,VALID,100,VALID,0,VALID,20.4087,VALID,137,VALID,0.930804,
2005-02-04, 00:59:00,VALID,918.344,VALID,0,VALID,100,VALID,0.0339617,VALID,20.4023,VALID,138,VALID,0.734375,
2005-02-04, 01:00:00,VALID,918.322,VALID,0,VALID,100,VALID,0,VALID,20.4189,VALID,128,VALID,0.824219,
2005-02-04, 01:01:00,VALID,918.312,VALID,0,VALID,100,VALID,0,VALID,20.4023,VALID,127,VALID,1.09803,
2005-02-04, 01:02:00,VALID,918.318,VALID,0,VALID,100,VALID,0,VALID,20.3799,VALID,121,VALID,0.700335,
2005-02-04, 01:03:01,VALID,918.295,VALID,0,VALID,100,VALID,0,VALID,20.3762,VALID,109,VALID,0.428285,
2005-02-04, 01:04:01,VALID,918.29,VALID,0,VALID,100,VALID,0.0169808,VALID,20.3762,VALID,111,VALID,0.546503,
2005-02-04, 01:05:01,VALID,918.26,VALID,0,VALID,100,VALID,0.0169808,VALID,20.3697,VALID,96,VALID,0.72691,
2005-02-04, 01:06:00,VALID,918.27,VALID,0,VALID,100,VALID,0,VALID,20.367,VALID,108,VALID,0.761083,
2005-02-04, 01:07:01,VALID,918.256,VALID,0,VALID,100,VALID,0,VALID,20.3665,VALID,86,VALID,0.986979,
2005-02-04, 01:08:01,VALID,918.239,VALID,0,VALID,100,VALID,0,VALID,20.37,VALID,111,VALID,0.721628,
2005-02-04, 01:09:00,VALID,918.228,VALID,0,VALID,100,VALID,0,VALID,20.3861,VALID,114,VALID,0.46875,
2005-02-04, 01:10:01,VALID,918.212,VALID,0,VALID,100,VALID,0,VALID,20.3926,VALID,117,VALID,0.584162,
2005-02-04, 01:11:01,VALID,918.197,VALID,0,VALID,100,VALID,0.0169808,VALID,20.3856,VALID,137,VALID,0.60774,
2005-02-04, 01:12:00,VALID,918.182,VALID,0,VALID,100,VALID,0,VALID,20.4025,VALID,138,VALID,0.446555,
2005-02-04, 01:13:01,VALID,918.182,VALID,0.2,VALID,100,VALID,0.0339617,VALID,20.392,VALID,142,VALID,0.548118,
2005-02-04, 01:14:00,VALID,918.161,VALID,0,VALID,100,VALID,0.0169808,VALID,20.4025,VALID,138,VALID,0.829078,
2005-02-04, 01:15:01,VALID,918.156,VALID,0,VALID,100,VALID,0,VALID,20.3794,VALID,136,VALID,0.333031,
2005-02-04, 01:16:00,VALID,918.159,VALID,0,VALID,100,VALID,0.0339617,VALID,20.3764,VALID,145,VALID,0.708519,
2005-02-04, 01:17:00,VALID,918.152,VALID,0,VALID,100,VALID,0,VALID,20.3732,VALID,135,VALID,0.639898,
2005-02-04, 01:18:01,VALID,918.116,VALID,0,VALID,100,VALID,0,VALID,20.3702,VALID,146,VALID,0.816406,
2005-02-04, 01:19:01,VALID,918.095,VALID,0,VALID,100,VALID,0,VALID,20.3565,VALID,151,VALID,0.949479,
2005-02-04, 01:20:01,VALID,918.079,VALID,0,VALID,100,VALID,0,VALID,20.3598,VALID,147,VALID,0.890625,
2005-02-04, 01:21:00,VALID,918.075,VALID,0,VALID,100,VALID,0,VALID,20.3665,VALID,143,VALID,0.819931,
2005-02-04, 01:22:01,VALID,918.071,VALID,0,VALID,100,VALID,0.0339617,VALID,20.3697,VALID,148,VALID,1.04004,
2005-02-04, 01:23:01,VALID,918.077,VALID,0,VALID,100,VALID,0.0339617,VALID,20.3595,VALID,151,VALID,0.746838,
2005-02-04, 01:24:01,VALID,918.083,VALID,0,VALID,100,VALID,0.0339617,VALID,20.363,VALID,150,VALID,1.13917,
2005-02-04, 01:25:01,VALID,918.08,VALID,0,VALID,100,VALID,0.0169808,VALID,20.3821,VALID,143,VALID,0.866122,
2005-02-04, 01:26:00,VALID,918.078,VALID,0,VALID,100,VALID,0,VALID,20.4087,VALID,134,VALID,0.710938,
2005-02-04, 01:27:01,VALID,918.091,VALID,0,VALID,100,VALID,0.0509425,VALID,20.405,VALID,122,VALID,0.774325,
2005-02-04, 01:28:00,VALID,918.088,VALID,0,VALID,100,VALID,0.0169808,VALID,20.4147,VALID,121,VALID,0.672066,
2005-02-04, 01:29:01,VALID,918.085,VALID,0,VALID,100,VALID,0.0339617,VALID,20.4308,VALID,112,VALID,1.02385,
2005-02-04, 01:30:01,VALID,918.082,VALID,0,VALID,100,VALID,0.0339617,VALID,20.4507,VALID,102,VALID,1.07273,
2005-02-04, 01:31:00,VALID,918.07,VALID,0,VALID,100,VALID,0.0169808,VALID,20.4666,VALID,97,VALID,1.01744,
2005-02-04, 01:32:00,VALID,918.045,VALID,0,VALID,100,VALID,0,VALID,20.4827,VALID,90,VALID,0.900391,
2005-02-04, 01:33:00,VALID,918.031,VALID,0,VALID,100,VALID,0.0339617,VALID,20.5081,VALID,86,VALID,0.698583,
2005-02-04, 01:34:01,VALID,918.022,VALID,0,VALID,100,VALID,0,VALID,20.521,VALID,98,VALID,0.811612,
2005-02-04, 01:35:00,VALID,918.001,VALID,0,VALID,100,VALID,0.0169808,VALID,20.5573,VALID,112,VALID,0.784817,
2005-02-04, 01:36:01,VALID,917.985,VALID,0,VALID,100,VALID,0,VALID,20.5777,VALID,132,VALID,0.633003,
2005-02-04, 01:37:00,VALID,917.969,VALID,0,VALID,100,VALID,-0.0339617,VALID,20.5906,VALID,127,VALID,0.761328,
2005-02-04, 01:38:01,VALID,917.952,VALID,0,VALID,100,VALID,-0.0169808,VALID,20.61,VALID,132,VALID,0.737393,
2005-02-04, 01:39:01,VALID,917.93,VALID,0,VALID,100,VALID,0,VALID,20.6033,VALID,147,VALID,0.733648,
2005-02-04, 01:40:01,VALID,917.908,VALID,0,VALID,100,VALID,0,VALID,20.5968,VALID,157,VALID,0.861979,
2005-02-04, 01:41:01,VALID,917.883,VALID,0,VALID,100,VALID,0,VALID,20.6,VALID,146,VALID,0.773056,
2005-02-04, 01:42:01,VALID,917.879,VALID,0,VALID,100,VALID,-0.0339617,VALID,20.5973,VALID,149,VALID,0.869591,
2005-02-04, 01:43:01,VALID,917.878,VALID,0,VALID,100,VALID,-0.0509425,VALID,20.5772,VALID,144,VALID,0.76835,
2005-02-04, 01:44:01,VALID,917.875,VALID,0,VALID,100,VALID,-0.0169808,VALID,20.5842,VALID,152,VALID,0.81901,
2005-02-04, 01:45:01,VALID,917.872,VALID,0,VALID,100,VALID,-0.0169808,VALID,20.5742,VALID,117,VALID,1.07049,
2005-02-04, 01:46:01,VALID,917.871,VALID,0,VALID,100,VALID,-0.0509425,VALID,20.5645,VALID,110,VALID,0.786005,
2005-02-04, 01:47:01,VALID,917.871,VALID,0,VALID,100,VALID,-0.0169808,VALID,20.5615,VALID,75,VALID,0.47433,
2005-02-04, 01:48:01,VALID,917.883,VALID,0,VALID,100,VALID,-0.0339617,VALID,20.5586,VALID,76,VALID,0.493902,
2005-02-04, 01:49:01,VALID,917.874,VALID,0,VALID,100,VALID,-0.0339617,VALID,20.5392,VALID,76,VALID,0.458757,
2005-02-04, 01:50:01,VALID,917.857,VALID,0,VALID,100,VALID,-0.0169808,VALID,20.5233,VALID,79,VALID,0.648983,
2005-02-04, 01:51:01,VALID,917.835,VALID,0,VALID,100,VALID,-0.0679233,VALID,20.5042,VALID,59,VALID,0.73473,
2005-02-04, 01:52:01,VALID,917.826,VALID,0,VALID,100,VALID,-0.0509425,VALID,20.4646,VALID,58,VALID,0.943598,
2005-02-04, 01:53:01,VALID,917.781,VALID,0,VALID,100,VALID,-0.0849042,VALID,20.4557,VALID,47,VALID,0.998884,
2005-02-04, 01:54:01,VALID,917.758,VALID,0,VALID,100,VALID,-0.0169808,VALID,20.413,VALID,44,VALID,1.08003,
2005-02-04, 01:55:01,VALID,917.74,VALID,0,VALID,100,VALID,-0.0679233,VALID,20.3842,VALID,40,VALID,1.19028,
2005-02-04, 01:56:01,VALID,917.729,VALID,0,VALID,100,VALID,-0.0509425,VALID,20.365,VALID,40,VALID,1.29669,
2005-02-04, 01:57:01,VALID,917.714,VALID,0,VALID,100,VALID,-0.0339617,VALID,20.365,VALID,47,VALID,1.20132,
2005-02-04, 01:58:01,VALID,917.719,VALID,0,VALID,100,VALID,-0.0849042,VALID,20.3521,VALID,43,VALID,0.989099,
2005-02-04, 01:59:01,VALID,917.731,VALID,0,VALID,100,VALID,-0.0509425,VALID,20.3551,VALID,52,VALID,0.780185,
2005-02-04, 02:00:00,VALID,917.746,VALID,0,VALID,100,VALID,-0.0509425,VALID,20.3548,VALID,55,VALID,0.572599,
2005-02-04, 02:01:00,VALID,917.746,VALID,0,VALID,100,VALID,-0.0679233,VALID,20.3645,VALID,57,VALID,0.702009,
2005-02-04, 02:02:00,VALID,917.732,VALID,0,VALID,100,VALID,-0.0509425,VALID,20.378,VALID,57,VALID,0.549479,
2005-02-04, 02:03:00,VALID,917.715,VALID,0,VALID,100,VALID,-0.0509425,VALID,20.3839,VALID,57,VALID,0.29723,
2005-02-04, 02:04:00,VALID,917.69,VALID,0,VALID,100,VALID,-0.0509425,VALID,20.3904,VALID,59,VALID,0.417763,
2005-02-04, 02:05:00,VALID,917.661,VALID,0,VALID,100,VALID,-0.0679233,VALID,20.4,VALID,73,VALID,0.71766,
2005-02-04, 02:06:00,VALID,917.625,VALID,0,VALID,100,VALID,-0.0849042,VALID,20.403,VALID,89,VALID,0.799306,
2005-02-04, 02:07:00,VALID,917.597,VALID,0,VALID,100,VALID,-0.0849042,VALID,20.4259,VALID,113,VALID,1.18301,
2005-02-04, 02:08:00,VALID,917.575,VALID,0,VALID,100,VALID,-0.0509425,VALID,20.4552,VALID,128,VALID,1.10215,
2005-02-04, 02:09:00,VALID,917.55,VALID,0,VALID,100,VALID,-0.0509425,VALID,20.5072,VALID,132,VALID,0.929688,
2005-02-04, 02:10:00,VALID,917.526,VALID,0,VALID,100,VALID,-0.0679233,VALID,20.5196,VALID,134,VALID,0.883333,
2005-02-04, 02:11:00,VALID,917.508,VALID,0,VALID,100,VALID,-0.0679233,VALID,20.5161,VALID,140,VALID,1.14317,
2005-02-04, 02:12:00,VALID,917.496,VALID,0,VALID,99.9919,VALID,-0.0509425,VALID,20.5395,VALID,141,VALID,1.10795,
2005-02-04, 02:13:00,VALID,917.49,VALID,0,VALID,99.9545,VALID,-0.0849042,VALID,20.5429,VALID,138,VALID,1.06597,
2005-02-04, 02:14:00,VALID,917.476,VALID,0,VALID,99.8909,VALID,-0.0679233,VALID,20.536,VALID,140,VALID,1.13821,
2005-02-04, 02:15:00,VALID,917.472,VALID,0,VALID,99.8451,VALID,-0.0679233,VALID,20.5593,VALID,136,VALID,1.23219,
2005-02-04, 02:16:00,VALID,917.459,VALID,0,VALID,99.7663,VALID,-0.0679233,VALID,20.5586,VALID,136,VALID,1.02717,
2005-02-04, 02:17:00,VALID,917.449,VALID,0,VALID,99.7167,VALID,-0.0339617,VALID,20.5586,VALID,139,VALID,0.885174,
2005-02-04, 02:18:00,VALID,917.439,VALID,0,VALID,99.7141,VALID,-0.0509425,VALID,20.5556,VALID,136,VALID,0.676711,
2005-02-04, 02:19:00,VALID,917.439,VALID,0,VALID,99.7485,VALID,-0.0339617,VALID,20.5327,VALID,146,VALID,0.4016,
2005-02-04, 02:20:00,VALID,917.433,VALID,0,VALID,99.7854,VALID,-0.0339617,VALID,20.5072,VALID,143,VALID,0.609553,
2005-02-04, 02:21:00,VALID,917.42,VALID,0,VALID,99.8884,VALID,-0.0509425,VALID,20.5007,VALID,151,VALID,0.384411,
2005-02-04, 02:22:00,VALID,917.424,VALID,0,VALID,99.9756,VALID,-0.0339617,VALID,20.4644,VALID,150,VALID,0.448946,
2005-02-04, 02:23:00,VALID,917.414,VALID,0,VALID,100,VALID,-0.0339617,VALID,20.4453,VALID,145,VALID,0.64375,
2005-02-04, 02:24:00,VALID,917.404,VALID,0,VALID,100,VALID,-0.0169808,VALID,20.4323,VALID,153,VALID,0.460764,
2005-02-04, 02:25:00,VALID,917.398,VALID,0,VALID,100,VALID,-0.0169808,VALID,20.4068,VALID,157,VALID,0.627604,
2005-02-04, 02:26:00,VALID,917.379,VALID,0,VALID,100,VALID,0,VALID,20.3737,VALID,157,VALID,0.86137,
2005-02-04, 02:27:00,VALID,917.353,VALID,0,VALID,100,VALID,-0.0169808,VALID,20.3516,VALID,157,VALID,0.539426,
2005-02-04, 02:28:00,VALID,917.338,VALID,0,VALID,100,VALID,-0.0169808,VALID,20.3484,VALID,153,VALID,0.660764,
2005-02-04, 02:29:00,VALID,917.313,VALID,0,VALID,100,VALID,-0.0339617,VALID,20.3355,VALID,152,VALID,0.881904,
2005-02-04, 02:30:00,VALID,917.294,VALID,0,VALID,100,VALID,-0.0169808,VALID,20.336,VALID,161,VALID,0.862749,
2005-02-04, 02:31:00,VALID,917.274,VALID,0,VALID,100,VALID,-0.0509425,VALID,20.326,VALID,155,VALID,0.541424,
2005-02-04, 02:32:00,VALID,917.258,VALID,0,VALID,100,VALID,-0.0339617,VALID,20.3099,VALID,152,VALID,1.26395,
2005-02-04, 02:33:00,VALID,917.242,VALID,0,VALID,100,VALID,-0.0679233,VALID,20.3096,VALID,150,VALID,1.05938,
2005-02-04, 02:34:00,VALID,917.211,VALID,0,VALID,100,VALID,-0.0679233,VALID,20.3233,VALID,149,VALID,1.11833,
2005-02-04, 02:35:00,VALID,917.206,VALID,0,VALID,100,VALID,-0.0509425,VALID,20.323,VALID,153,VALID,1.03887,
2005-02-04, 02:36:00,VALID,917.193,VALID,0,VALID,100,VALID,0,VALID,20.3193,VALID,137,VALID,1.60733,
2005-02-04, 02:37:00,VALID,917.193,VALID,0,VALID,100,VALID,-0.0169808,VALID,20.3158,VALID,138,VALID,1.21801,
2005-02-04, 02:38:00,VALID,917.185,VALID,0,VALID,100,VALID,0,VALID,20.3158,VALID,146,VALID,1.43136,
2005-02-04, 02:39:00,VALID,917.178,VALID,0,VALID,100,VALID,0.0169808,VALID,20.3414,VALID,141,VALID,1.37779,
2005-02-04, 02:40:00,VALID,917.183,VALID,0,VALID,100,VALID,-0.0169808,VALID,20.3742,VALID,146,VALID,0.986374,
2005-02-04, 02:41:00,VALID,917.184,VALID,0,VALID,100,VALID,-0.0509425,VALID,20.3936,VALID,153,VALID,0.902083,
2005-02-04, 02:42:00,VALID,917.19,VALID,0,VALID,100,VALID,0,VALID,20.4,VALID,146,VALID,0.772892,
2005-02-04, 02:43:00,VALID,917.201,VALID,0,VALID,100,VALID,0,VALID,20.4035,VALID,147,VALID,0.607143,
2005-02-04, 02:44:00,VALID,917.207,VALID,0,VALID,100,VALID,0,VALID,20.3971,VALID,138,VALID,0.638951,
2005-02-04, 02:45:00,VALID,917.208,VALID,0,VALID,100,VALID,-0.0169808,VALID,20.3804,VALID,153,VALID,0.748698,
2005-02-04, 02:46:00,VALID,917.201,VALID,0,VALID,100,VALID,-0.0169808,VALID,20.3901,VALID,153,VALID,0.619048,
2005-02-04, 02:47:00,VALID,917.2,VALID,0,VALID,100,VALID,-0.0169808,VALID,20.3938,VALID,146,VALID,0.693132,
2005-02-04, 02:48:00,VALID,917.187,VALID,0,VALID,100,VALID,-0.0169808,VALID,20.4065,VALID,143,VALID,0.48609,
2005-02-04, 02:49:00,VALID,917.178,VALID,0,VALID,100,VALID,-0.0169808,VALID,20.41,VALID,143,VALID,0.284299,
2005-02-04, 02:50:00,VALID,917.182,VALID,0,VALID,100,VALID,-0.0339617,VALID,20.4194,VALID,143,VALID,0.0746094,
2005-02-04, 02:51:00,VALID,917.184,VALID,0,VALID,100,VALID,-0.0169808,VALID,20.4159,VALID,143,VALID,0.192383,
2005-02-04, 02:52:00,VALID,917.175,VALID,0,VALID,100,VALID,0,VALID,20.41,VALID,121,VALID,0.281795,
2005-02-04, 02:53:00,VALID,917.163,VALID,0,VALID,100,VALID,-0.0339617,VALID,20.41,VALID,118,VALID,0.364826,
2005-02-04, 02:54:00,VALID,917.163,VALID,0,VALID,100,VALID,-0.0169808,VALID,20.4038,VALID,118,VALID,0.331641,
2005-02-04, 02:55:00,VALID,917.156,VALID,0,VALID,100,VALID,-0.0169808,VALID,20.3874,VALID,118,VALID,0.410764,
2005-02-04, 02:56:00,VALID,917.145,VALID,0,VALID,100,VALID,0,VALID,20.3938,VALID,118,VALID,0.489397,
2005-02-04, 02:57:00,VALID,917.138,VALID,0,VALID,100,VALID,-0.0169808,VALID,20.3839,VALID,117,VALID,0.741425,
2005-02-04, 02:58:00,VALID,917.121,VALID,0,VALID,100,VALID,0,VALID,20.4035,VALID,117,VALID,0.289971,
2005-02-04, 02:59:00,VALID,917.129,VALID,0,VALID,100,VALID,0,VALID,20.403,VALID,116,VALID,0.473675,
2005-02-04, 03:00:00,VALID,917.125,VALID,0,VALID,100,VALID,-0.0339617,VALID,20.3938,VALID,115,VALID,0.343572,
2005-02-04, 03:01:00,VALID,917.129,VALID,0,VALID,100,VALID,-0.0339617,VALID,20.3834,VALID,108,VALID,0.324574,
2005-02-04, 03:02:00,VALID,917.124,VALID,0,VALID,100,VALID,0,VALID,20.378,VALID,107,VALID,0.370998,
2005-02-04, 03:03:00,VALID,917.118,VALID,0,VALID,100,VALID,-0.0339617,VALID,20.3712,VALID,50,VALID,0.549419,
2005-02-04, 03:04:00,VALID,917.096,VALID,0,VALID,100,VALID,-0.0339617,VALID,20.3844,VALID,26,VALID,0.747327,
2005-02-04, 03:05:00,VALID,917.085,VALID,0,VALID,100,VALID,-0.0169808,VALID,20.371,VALID,18,VALID,0.95822,
2005-02-04, 03:06:00,VALID,917.059,VALID,0,VALID,100,VALID,-0.0169808,VALID,20.3486,VALID,6,VALID,1.05096,
2005-02-04, 03:07:00,VALID,917.056,VALID,0,VALID,100,VALID,0,VALID,20.3196,VALID,3,VALID,1.08379,
2005-02-04, 03:08:00,VALID,917.055,VALID,0,VALID,100,VALID,-0.0169808,VALID,20.3007,VALID,5,VALID,1.12405,
2005-02-04, 03:09:00,VALID,917.045,VALID,0,VALID,100,VALID,-0.0339617,VALID,20.2612,VALID,12,VALID,0.96005,
2005-02-04, 03:10:00,VALID,917.039,VALID,0,VALID,100,VALID,-0.0339617,VALID,20.2517,VALID,18,VALID,0.737695,
2005-02-04, 03:11:00,VALID,917.008,VALID,0,VALID,100,VALID,-0.0679233,VALID,20.245,VALID,17,VALID,0.889027,
2005-02-04, 03:12:00,VALID,916.989,VALID,0,VALID,100,VALID,-0.0169808,VALID,20.2391,VALID,20,VALID,0.897166,
2005-02-04, 03:13:00,VALID,916.973,VALID,0,VALID,100,VALID,-0.0339617,VALID,20.2321,VALID,17,VALID,0.641211,
2005-02-04, 03:14:00,VALID,916.948,VALID,0,VALID,100,VALID,-0.0169808,VALID,20.2582,VALID,33,VALID,0.554129,
2005-02-04, 03:15:00,VALID,916.903,VALID,0,VALID,100,VALID,-0.0169808,VALID,20.2453,VALID,40,VALID,0.105291,
2005-02-04, 03:16:00,VALID,916.892,VALID,0,VALID,100,VALID,-0.0169808,VALID,20.2552,VALID,40,VALID,0.0678354,
2005-02-04, 03:17:00,VALID,916.865,VALID,0,VALID,100,VALID,-0.0339617,VALID,20.2517,VALID,40,VALID,0,
2005-02-04, 03:18:00,VALID,916.841,VALID,0,VALID,100,VALID,-0.0169808,VALID,20.2714,VALID,40,VALID,0.0921148,
2005-02-04, 03:19:00,VALID,916.82,VALID,0,VALID,100,VALID,-0.0169808,VALID,20.2808,VALID,38,VALID,0.14444,
2005-02-04, 03:20:00,VALID,916.809,VALID,0,VALID,100,VALID,0.0169808,VALID,20.3002,VALID,22,VALID,0.50705,
2005-02-04, 03:21:00,VALID,916.772,VALID,0,VALID,100,VALID,-0.0339617,VALID,20.2873,VALID,22,VALID,0.437145,
2005-02-04, 03:22:00,VALID,916.743,VALID,0,VALID,100,VALID,-0.0169808,VALID,20.2907,VALID,22,VALID,0.493359,
2005-02-04, 03:23:00,VALID,916.718,VALID,0,VALID,100,VALID,-0.0169808,VALID,20.291,VALID,22,VALID,0.662997,
2005-02-04, 03:24:00,VALID,916.678,VALID,0,VALID,100,VALID,0,VALID,20.2746,VALID,22,VALID,0.670099,
2005-02-04, 03:25:00,VALID,916.643,VALID,0,VALID,100,VALID,-0.0339617,VALID,20.2676,VALID,22,VALID,0.756722,
2005-02-04, 03:26:00,VALID,916.599,VALID,0,VALID,100,VALID,0,VALID,20.2617,VALID,26,VALID,0.767299,
2005-02-04, 03:27:00,VALID,916.571,VALID,0,VALID,100,VALID,-0.0169808,VALID,20.2192,VALID,27,VALID,0.685138,
2005-02-04, 03:28:00,VALID,916.537,VALID,0,VALID,100,VALID,-0.0169808,VALID,20.2097,VALID,27,VALID,0.172585,
2005-02-04, 03:29:00,VALID,916.545,VALID,0,VALID,100,VALID,-0.0509425,VALID,20.2132,VALID,27,VALID,0.0413491,
2005-02-04, 03:30:00,VALID,916.559,VALID,0,VALID,100,VALID,0,VALID,20.1901,VALID,27,VALID,0,
2005-02-04, 03:31:00,VALID,916.583,VALID,0,VALID,100,VALID,-0.0509425,VALID,20.1971,VALID,314,VALID,0.294922,
2005-02-04, 03:32:00,VALID,916.601,VALID,0,VALID,100,VALID,-0.0169808,VALID,20.1809,VALID,217,VALID,0.542225,
2005-02-04, 03:33:00,VALID,916.636,VALID,0,VALID,100,VALID,-0.0169808,VALID,20.1675,VALID,197,VALID,0.750545,
2005-02-04, 03:34:00,VALID,916.666,VALID,0,VALID,100,VALID,-0.0509425,VALID,20.1516,VALID,161,VALID,0.537246,
2005-02-04, 03:35:00,VALID,916.699,VALID,0,VALID,100,VALID,-0.0169808,VALID,20.1355,VALID,145,VALID,0.198103,
2005-02-04, 03:36:00,VALID,916.711,VALID,0,VALID,100,VALID,-0.101885,VALID,20.1295,VALID,141,VALID,0,
2005-02-04, 03:37:00,VALID,916.74,VALID,0,VALID,100,VALID,-0.118866,VALID,20.1298,VALID,141,VALID,0,
2005-02-04, 03:38:00,VALID,916.739,VALID,0,VALID,100,VALID,-0.0849042,VALID,20.126,VALID,141,VALID,0,
2005-02-04, 03:39:00,VALID,916.744,VALID,0,VALID,100,VALID,-0.101885,VALID,20.1397,VALID,141,VALID,0,
2005-02-04, 03:40:00,VALID,916.755,VALID,0,VALID,100,VALID,-0.101885,VALID,20.1265,VALID,141,VALID,0.0361111,
2005-02-04, 03:41:00,VALID,916.753,VALID,0,VALID,100,VALID,-0.0849042,VALID,20.1258,VALID,141,VALID,0.146205,
2005-02-04, 03:42:00,VALID,916.758,VALID,0,VALID,100,VALID,-0.0679233,VALID,20.1417,VALID,141,VALID,0,